{"data":{"norad_id":61593,"epoch":"2026-05-25T04:10:40.738368Z","epoch_age_seconds":60198,"freshness":"FRESH","line1":"1 61593U 24187V   26145.17408262  .00000454  00000+0  24588-4 0  9997","line2":"2 61593  53.1613  66.9356 0001263  91.4524 268.6623 15.34384993 90839","mean_motion":15.34384993,"eccentricity":0.0001263,"inclination_deg":53.1613,"raan_deg":66.9356,"arg_perigee_deg":91.4524,"mean_anomaly_deg":268.6623,"bstar":2.4588e-5,"rev_number":9083,"period_min":93.848675956126,"perigee_km":461.88384078136,"apogee_km":463.61184829309,"semimajor_km":6840.8848445372,"source":"CELESTRAK","updated_at":"2026-05-25T13:38:19.406003Z"}}